| time (UTC) | temp F | wind direction | speed MPH | gust MPH | rain 1hr in | rain 24hr in | rain mn in | humidity % | barometer mb |
| 20260507042904 | 51 | 27 | 0.0 | 0.0 | 0.00 | 0.53 | 0.53 | 92 | 1016.7 |
| 20260507041904 | 51 | 27 | 0.0 | 0.0 | 0.00 | 0.53 | 0.53 | 92 | 1016.7 |
| 20260507041404 | 51 | 27 | 0.0 | 0.0 | 0.00 | 0.53 | 0.53 | 92 | 1016.6 |
| 20260507040904 | 51 | 27 | 0.0 | 0.0 | 0.00 | 0.53 | 0.53 | 91 | 1016.7 |
| 20260507035905 | 51 | 27 | 0.0 | 0.0 | 0.00 | 0.53 | 0.53 | 91 | 1016.7 |
| 20260507035405 | 51 | 27 | 0.0 | 0.0 | 0.00 | 0.53 | 0.53 | 91 | 1016.7 |
| 20260507034905 | 51 | 27 | 0.0 | 0.0 | 0.00 | 0.53 | 0.53 | 91 | 1016.8 |
| 20260507034405 | 51 | 27 | 0.0 | 0.0 | 0.00 | 0.53 | 0.53 | 91 | 1017.0 |
| 20260507033904 | 52 | 27 | 0.0 | 0.0 | 0.00 | 0.53 | 0.53 | 91 | 1016.8 |
| 20260507033405 | 52 | 27 | 0.0 | 0.0 | 0.00 | 0.53 | 0.53 | 91 | 1016.7 |
| 20260507032905 | 52 | 27 | 0.0 | 0.0 | 0.00 | 0.53 | 0.53 | 91 | 1016.6 |
| 20260507032405 | 52 | 27 | 0.0 | 1.0 | 0.00 | 0.53 | 0.53 | 91 | 1016.3 |
| 20260507031905 | 52 | 27 | 1.0 | 3.0 | 0.00 | 0.53 | 0.53 | 90 | 1016.2 |
| 20260507031404 | 52 | 18 | 1.0 | 3.0 | 0.00 | 0.53 | 0.53 | 90 | 1016.2 |
| 20260507030904 | 52 | 18 | 1.0 | 3.0 | 0.00 | 0.53 | 0.53 | 90 | 1016.0 |
| 20260507030404 | 52 | 18 | 1.0 | 2.0 | 0.00 | 0.53 | 0.53 | 91 | 1015.9 |
| 20260507025904 | 52 | 18 | 0.0 | 2.0 | 0.00 | 0.53 | 0.53 | 91 | 1015.9 |
| 20260507025404 | 52 | 18 | 2.0 | 3.0 | 0.00 | 0.53 | 0.53 | 91 | 1016.0 |
| 20260507024904 | 52 | 32 | 1.0 | 5.0 | 0.00 | 0.53 | 0.53 | 91 | 1015.9 |
| 20260507024404 | 52 | 39 | 2.0 | 5.0 | 0.00 | 0.53 | 0.53 | 91 | 1015.8 |
| 20260507023904 | 52 | 23 | 2.0 | 5.0 | 0.00 | 0.53 | 0.53 | 91 | 1015.8 |
| 20260507023404 | 52 | 346 | 2.0 | 3.0 | 0.00 | 0.53 | 0.53 | 91 | 1015.6 |
| 20260507022404 | 52 | 17 | 2.0 | 3.0 | 0.00 | 0.53 | 0.53 | 91 | 1015.8 |
| 20260507021904 | 52 | 47 | 1.0 | 3.0 | 0.01 | 0.53 | 0.53 | 91 | 1015.8 |
| 20260507021404 | 52 | 48 | 2.0 | 3.0 | 0.01 | 0.53 | 0.53 | 91 | 1015.6 |
| 20260507020904 | 52 | 71 | 2.0 | 3.0 | 0.01 | 0.53 | 0.53 | 91 | 1015.6 |
| 20260507020404 | 52 | 76 | 1.0 | 2.0 | 0.01 | 0.53 | 0.53 | 91 | 1015.5 |
| 20260507015904 | 52 | 76 | 2.0 | 3.0 | 0.01 | 0.53 | 0.53 | 91 | 1015.6 |
| 20260507014904 | 52 | 33 | 1.0 | 3.0 | 0.01 | 0.53 | 0.53 | 91 | 1015.5 |
| 20260507014405 | 52 | 25 | 2.0 | 5.0 | 0.01 | 0.53 | 0.53 | 91 | 1015.2 |
| 20260507013905 | 52 | 18 | 2.0 | 5.0 | 0.01 | 0.53 | 0.53 | 91 | 1015.2 |
| 20260507013405 | 52 | 30 | 3.0 | 7.0 | 0.01 | 0.53 | 0.53 | 91 | 1015.2 |
| 20260507012904 | 52 | 22 | 3.0 | 5.0 | 0.01 | 0.53 | 0.53 | 91 | 1015.3 |
| 20260507012405 | 52 | 21 | 1.0 | 6.0 | 0.01 | 0.53 | 0.53 | 91 | 1015.6 |
| 20260507010904 | 52 | 24 | 2.0 | 3.0 | 0.00 | 0.52 | 0.52 | 91 | 1015.8 |
| 20260507010405 | 52 | 5 | 1.0 | 2.0 | 0.01 | 0.52 | 0.52 | 91 | 1015.8 |
| 20260507005905 | 52 | 6 | 2.0 | 3.0 | 0.01 | 0.52 | 0.52 | 91 | 1015.6 |
| 20260507005405 | 52 | 14 | 2.0 | 5.0 | 0.01 | 0.52 | 0.52 | 91 | 1015.4 |
| 20260507004904 | 52 | 347 | 3.0 | 6.0 | 0.01 | 0.52 | 0.52 | 91 | 1015.7 |
| 20260507004404 | 52 | 48 | 3.0 | 6.0 | 0.01 | 0.52 | 0.52 | 91 | 1015.5 |
| 20260507003904 | 52 | 49 | 2.0 | 3.0 | 0.01 | 0.52 | 0.52 | 91 | 1015.4 |
| 20260507003404 | 52 | 49 | 1.0 | 3.0 | 0.01 | 0.52 | 0.52 | 91 | 1015.3 |
| 20260507002904 | 52 | 50 | 2.0 | 5.0 | 0.01 | 0.52 | 0.52 | 91 | 1015.4 |
| 20260507002404 | 52 | 53 | 3.0 | 3.0 | 0.01 | 0.52 | 0.52 | 90 | 1015.2 |
| 20260507001904 | 52 | 11 | 1.0 | 3.0 | 0.01 | 0.52 | 0.52 | 90 | 1016.2 |
| 20260507001404 | 52 | 8 | 2.0 | 3.0 | 0.01 | 0.52 | 0.52 | 90 | 1016.5 |
| 20260507000904 | 52 | 0 | 3.0 | 5.0 | 0.01 | 0.52 | 0.52 | 90 | 1016.4 |
| 20260507000405 | 52 | 0 | 2.0 | 5.0 | 0.00 | 0.51 | 0.51 | 90 | 1016.1 |
| 20260506235904 | 53 | 349 | 3.0 | 8.0 | 0.00 | 0.51 | 0.51 | 90 | 1015.9 |
| 20260506235405 | 53 | 355 | 2.0 | 3.0 | 0.00 | 0.51 | 0.51 | 90 | 1016.1 |
| 20260506234904 | 53 | 355 | 3.0 | 3.0 | 0.00 | 0.51 | 0.51 | 90 | 1015.9 |
| 20260506234404 | 53 | 355 | 2.0 | 5.0 | 0.00 | 0.51 | 0.51 | 90 | 1015.8 |
| 20260506233904 | 53 | 340 | 3.0 | 6.0 | 0.00 | 0.51 | 0.51 | 89 | 1015.6 |
| 20260506233404 | 53 | 13 | 3.0 | 5.0 | 0.00 | 0.51 | 0.51 | 89 | 1015.1 |
| 20260506232904 | 53 | 351 | 3.0 | 3.0 | 0.00 | 0.51 | 0.51 | 89 | 1015.0 |
| 20260506232404 | 53 | 25 | 2.0 | 3.0 | 0.00 | 0.51 | 0.51 | 89 | 1014.8 |
| 20260506231404 | 53 | 56 | 2.0 | 3.0 | 0.00 | 0.51 | 0.51 | 90 | 1014.5 |
| 20260506230905 | 53 | 56 | 2.0 | 3.0 | 0.00 | 0.51 | 0.51 | 90 | 1014.4 |
| 20260506230405 | 53 | 56 | 3.0 | 9.0 | 0.00 | 0.51 | 0.51 | 90 | 1014.3 |
| 20260506225905 | 53 | 39 | 5.0 | 10.0 | 0.00 | 0.51 | 0.51 | 90 | 1014.0 |
| 20260506225404 | 53 | 47 | 3.0 | 10.0 | 0.00 | 0.51 | 0.51 | 90 | 1014.1 |
| 20260506224905 | 53 | 57 | 6.0 | 12.0 | 0.00 | 0.51 | 0.51 | 90 | 1014.1 |
| 20260506224404 | 53 | 40 | 3.0 | 7.0 | 0.01 | 0.51 | 0.51 | 90 | 1013.9 |
| 20260506222404 | 53 | 46 | 5.0 | 10.0 | 0.01 | 0.51 | 0.51 | 90 | 1014.3 |
| 20260506221905 | 53 | 37 | 5.0 | 9.0 | 0.01 | 0.51 | 0.51 | 90 | 1014.4 |
| 20260506221404 | 53 | 358 | 5.0 | 8.0 | 0.02 | 0.51 | 0.51 | 90 | 1014.4 |
| 20260506220904 | 53 | 41 | 5.0 | 9.0 | 0.02 | 0.51 | 0.51 | 90 | 1014.3 |
| 20260506220404 | 53 | 47 | 5.0 | 10.0 | 0.02 | 0.51 | 0.51 | 90 | 1014.3 |
| 20260506215905 | 53 | 33 | 5.0 | 10.0 | 0.02 | 0.51 | 0.51 | 90 | 1014.9 |
| 20260506214904 | 53 | 13 | 2.0 | 5.0 | 0.04 | 0.51 | 0.51 | 90 | 1015.7 |
| 20260506213404 | 53 | 335 | 2.0 | 5.0 | 0.04 | 0.50 | 0.50 | 90 | 1015.2 |
| 20260506212904 | 53 | 6 | 2.0 | 9.0 | 0.04 | 0.50 | 0.50 | 90 | 1014.8 |
| 20260506212405 | 53 | 351 | 3.0 | 6.0 | 0.04 | 0.50 | 0.50 | 89 | 1014.7 |
| 20260506211904 | 53 | 348 | 2.0 | 5.0 | 0.04 | 0.50 | 0.50 | 89 | 1014.9 |
| 20260506211405 | 53 | 8 | 2.0 | 3.0 | 0.03 | 0.49 | 0.49 | 89 | 1014.8 |
| 20260506210904 | 53 | 342 | 3.0 | 5.0 | 0.03 | 0.49 | 0.49 | 89 | 1014.8 |
| 20260506210404 | 53 | 44 | 2.0 | 5.0 | 0.03 | 0.49 | 0.49 | 88 | 1014.8 |
| 20260506205904 | 53 | 37 | 2.0 | 5.0 | 0.03 | 0.49 | 0.49 | 88 | 1014.8 |
| 20260506205404 | 54 | 18 | 3.0 | 6.0 | 0.02 | 0.48 | 0.48 | 88 | 1015.1 |
| 20260506204905 | 54 | 2 | 3.0 | 5.0 | 0.01 | 0.47 | 0.47 | 87 | 1015.3 |
| 20260506204404 | 54 | 28 | 2.0 | 6.0 | 0.00 | 0.46 | 0.46 | 86 | 1014.9 |
| 20260506203904 | 54 | 345 | 3.0 | 8.0 | 0.00 | 0.46 | 0.46 | 86 | 1015.4 |
| 20260506203404 | 54 | 357 | 3.0 | 8.0 | 0.00 | 0.46 | 0.46 | 85 | 1015.7 |
| 20260506202905 | 54 | 345 | 4.0 | 8.0 | 0.00 | 0.46 | 0.46 | 85 | 1015.8 |
| 20260506202404 | 54 | 335 | 5.0 | 9.0 | 0.00 | 0.46 | 0.46 | 85 | 1015.5 |
| 20260506201905 | 55 | 343 | 3.0 | 7.0 | 0.00 | 0.46 | 0.46 | 85 | 1015.2 |
| 20260506201404 | 55 | 30 | 3.0 | 6.0 | 0.00 | 0.47 | 0.46 | 85 | 1014.9 |
| 20260506195905 | 55 | 353 | 4.0 | 9.0 | 0.00 | 0.47 | 0.46 | 84 | 1015.1 |
| 20260506195404 | 55 | 55 | 3.0 | 9.0 | 0.00 | 0.47 | 0.46 | 85 | 1015.1 |
| 20260506194904 | 54 | 342 | 5.0 | 10.0 | 0.00 | 0.47 | 0.46 | 85 | 1015.5 |
| 20260506194404 | 54 | 342 | 5.0 | 10.0 | 0.00 | 0.48 | 0.46 | 85 | 1016.0 |
| 20260506193905 | 54 | 350 | 5.0 | 9.0 | 0.00 | 0.48 | 0.46 | 85 | 1016.0 |
| 20260506192904 | 54 | 340 | 5.0 | 10.0 | 0.00 | 0.48 | 0.46 | 85 | 1015.9 |
| 20260506192404 | 54 | 337 | 3.0 | 6.0 | 0.00 | 0.48 | 0.46 | 86 | 1015.8 |
| 20260506191405 | 54 | 23 | 5.0 | 10.0 | 0.00 | 0.49 | 0.46 | 86 | 1015.7 |
| 20260506190905 | 54 | 359 | 4.0 | 9.0 | 0.00 | 0.49 | 0.46 | 86 | 1015.3 |
| 20260506190404 | 54 | 4 | 3.0 | 6.0 | 0.00 | 0.49 | 0.46 | 87 | 1015.0 |
| 20260506185904 | 53 | 37 | 5.0 | 9.0 | 0.00 | 0.49 | 0.46 | 87 | 1015.0 |
| 20260506185404 | 53 | 4 | 3.0 | 9.0 | 0.00 | 0.49 | 0.46 | 87 | 1015.1 |
| 20260506184404 | 53 | 4 | 5.0 | 9.0 | 0.00 | 0.50 | 0.46 | 87 | 1015.3 |
| 20260506183905 | 53 | 1 | 5.0 | 10.0 | 0.00 | 0.51 | 0.46 | 87 | 1015.1 |
| 20260506182904 | 53 | 355 | 6.0 | 9.0 | 0.00 | 0.52 | 0.46 | 87 | 1015.5 |
| 20260506180905 | 53 | 17 | 3.0 | 6.0 | 0.00 | 0.54 | 0.46 | 89 | 1014.9 |
| 20260506180404 | 53 | 353 | 5.0 | 10.0 | 0.00 | 0.54 | 0.46 | 89 | 1015.1 |
| 20260506175905 | 53 | 0 | 5.0 | 9.0 | 0.00 | 0.54 | 0.46 | 89 | 1015.3 |
| 20260506175404 | 53 | 9 | 2.0 | 9.0 | 0.00 | 0.54 | 0.46 | 90 | 1015.2 |
| 20260506174904 | 53 | 345 | 3.0 | 9.0 | 0.00 | 0.54 | 0.46 | 90 | 1015.0 |
| 20260506174404 | 52 | 37 | 3.0 | 5.0 | 0.00 | 0.54 | 0.46 | 90 | 1015.1 |
| 20260506173904 | 52 | 78 | 3.0 | 6.0 | 0.00 | 0.54 | 0.46 | 90 | 1015.5 |
| 20260506173404 | 52 | 56 | 4.0 | 8.0 | 0.00 | 0.54 | 0.46 | 91 | 1015.7 |
| 20260506172904 | 52 | 37 | 5.0 | 9.0 | 0.00 | 0.54 | 0.46 | 91 | 1015.3 |
| 20260506172404 | 51 | 43 | 5.0 | 10.0 | 0.00 | 0.55 | 0.46 | 91 | 1014.9 |
| 20260506171904 | 51 | 354 | 5.0 | 12.0 | 0.00 | 0.55 | 0.46 | 91 | 1015.5 |
| 20260506171404 | 51 | 352 | 4.0 | 10.0 | 0.00 | 0.55 | 0.46 | 91 | 1015.6 |
| 20260506170904 | 51 | 340 | 3.0 | 9.0 | 0.00 | 0.55 | 0.46 | 91 | 1015.5 |
| 20260506165404 | 50 | 349 | 7.0 | 12.0 | 0.00 | 0.55 | 0.46 | 92 | 1015.1 |
| 20260506164404 | 50 | 47 | 5.0 | 10.0 | 0.00 | 0.55 | 0.46 | 92 | 1015.0 |
| 20260506163904 | 50 | 27 | 5.0 | 10.0 | 0.00 | 0.55 | 0.46 | 92 | 1015.0 |
| 20260506163404 | 51 | 4 | 5.0 | 10.0 | 0.00 | 0.55 | 0.46 | 91 | 1015.0 |
| 20260506162905 | 51 | 349 | 3.0 | 8.0 | 0.00 | 0.55 | 0.46 | 91 | 1015.0 |
| 20260506162404 | 51 | 337 | 5.0 | 12.0 | 0.00 | 0.55 | 0.46 | 91 | 1014.7 |
| 20260506161904 | 51 | 336 | 7.0 | 12.0 | 0.00 | 0.55 | 0.46 | 91 | 1014.8 |
| 20260506161405 | 51 | 338 | 3.0 | 8.0 | 0.00 | 0.55 | 0.46 | 91 | 1014.8 |
| 20260506160404 | 51 | 1 | 4.0 | 8.0 | 0.00 | 0.55 | 0.46 | 91 | 1014.3 |
| 20260506155904 | 51 | 16 | 5.0 | 10.0 | 0.00 | 0.55 | 0.46 | 91 | 1014.3 |
| 20260506154904 | 50 | 36 | 3.0 | 8.0 | 0.00 | 0.55 | 0.46 | 91 | 1014.8 |
| 20260506154405 | 51 | 355 | 5.0 | 8.0 | 0.00 | 0.55 | 0.46 | 91 | 1014.9 |
| 20260506153904 | 51 | 349 | 5.0 | 12.0 | 0.00 | 0.55 | 0.46 | 91 | 1014.7 |
| 20260506152904 | 51 | 21 | 5.0 | 8.0 | 0.00 | 0.55 | 0.46 | 91 | 1014.4 |
| 20260506151904 | 51 | 354 | 3.0 | 7.0 | 0.00 | 0.55 | 0.46 | 91 | 1014.2 |
| 20260506151405 | 51 | 34 | 4.0 | 8.0 | 0.00 | 0.56 | 0.46 | 91 | 1014.1 |
| 20260506150904 | 51 | 42 | 2.0 | 7.0 | 0.00 | 0.56 | 0.46 | 91 | 1014.6 |
| 20260506150404 | 51 | 19 | 2.0 | 3.0 | 0.00 | 0.56 | 0.46 | 91 | 1014.8 |
| 20260506145905 | 51 | 343 | 5.0 | 8.0 | 0.00 | 0.56 | 0.46 | 90 | 1014.8 |
| 20260506145404 | 51 | 354 | 4.0 | 8.0 | 0.00 | 0.56 | 0.46 | 90 | 1014.6 |
| 20260506144904 | 52 | 3 | 3.0 | 8.0 | 0.00 | 0.57 | 0.46 | 90 | 1014.5 |
| 20260506144405 | 52 | 9 | 2.0 | 5.0 | 0.00 | 0.58 | 0.46 | 90 | 1014.7 |
| 20260506143904 | 52 | 24 | 2.0 | 5.0 | 0.00 | 0.58 | 0.46 | 90 | 1014.7 |
| 20260506143404 | 52 | 24 | 3.0 | 5.0 | 0.00 | 0.61 | 0.46 | 90 | 1014.7 |
| 20260506142904 | 52 | 353 | 2.0 | 5.0 | 0.00 | 0.62 | 0.46 | 90 | 1014.8 |
| 20260506142404 | 52 | 60 | 3.0 | 6.0 | 0.00 | 0.63 | 0.46 | 90 | 1014.5 |
| 20260506141904 | 52 | 70 | 6.0 | 10.0 | 0.00 | 0.64 | 0.46 | 90 | 1014.1 |
| 20260506141404 | 52 | 55 | 4.0 | 9.0 | 0.00 | 0.64 | 0.46 | 90 | 1014.0 |
| 20260506135904 | 51 | 48 | 3.0 | 8.0 | 0.00 | 0.64 | 0.46 | 90 | 1014.0 |
| 20260506135404 | 51 | 11 | 3.0 | 8.0 | 0.00 | 0.64 | 0.46 | 90 | 1014.0 |
| 20260506134904 | 51 | 42 | 5.0 | 12.0 | 0.00 | 0.64 | 0.46 | 90 | 1013.8 |
| 20260506134404 | 51 | 13 | 5.0 | 9.0 | 0.00 | 0.64 | 0.46 | 91 | 1013.7 |
| 20260506133904 | 51 | 8 | 5.0 | 9.0 | 0.00 | 0.64 | 0.46 | 91 | 1013.5 |
| 20260506133404 | 51 | 43 | 4.0 | 7.0 | 0.00 | 0.64 | 0.46 | 91 | 1013.7 |
| 20260506132904 | 51 | 2 | 5.0 | 8.0 | 0.00 | 0.64 | 0.46 | 91 | 1013.6 |
| 20260506132404 | 51 | 355 | 3.0 | 6.0 | 0.00 | 0.64 | 0.46 | 91 | 1013.6 |
| 20260506131904 | 51 | 26 | 5.0 | 8.0 | 0.00 | 0.64 | 0.46 | 91 | 1013.4 |
| 20260506130904 | 51 | 30 | 3.0 | 9.0 | 0.00 | 0.64 | 0.46 | 91 | 1013.0 |
| 20260506130404 | 51 | 18 | 5.0 | 12.0 | 0.00 | 0.64 | 0.46 | 91 | 1012.9 |
| 20260506125904 | 51 | 32 | 3.0 | 7.0 | 0.00 | 0.64 | 0.46 | 91 | 1012.6 |
| 20260506124904 | 51 | 57 | 1.0 | 5.0 | 0.00 | 0.64 | 0.46 | 92 | 1012.3 |
| 20260506124404 | 51 | 45 | 3.0 | 8.0 | 0.00 | 0.64 | 0.46 | 91 | 1012.1 |
| 20260506123904 | 51 | 29 | 3.0 | 10.0 | 0.00 | 0.64 | 0.46 | 91 | 1012.1 |
| 20260506123405 | 51 | 18 | 5.0 | 10.0 | 0.01 | 0.64 | 0.46 | 91 | 1011.9 |
| 20260506121904 | 51 | 26 | 5.0 | 10.0 | 0.01 | 0.64 | 0.46 | 92 | 1011.7 |
| 20260506121404 | 51 | 12 | 3.0 | 9.0 | 0.02 | 0.64 | 0.46 | 92 | 1012.0 |
| 20260506120905 | 51 | 348 | 5.0 | 10.0 | 0.02 | 0.64 | 0.46 | 92 | 1011.6 |
| 20260506115904 | 50 | 36 | 5.0 | 12.0 | 0.06 | 0.64 | 0.46 | 91 | 1010.9 |
| 20260506115404 | 51 | 69 | 5.0 | 10.0 | 0.08 | 0.64 | 0.46 | 92 | 1010.3 |
| 20260506113404 | 51 | 24 | 3.0 | 9.0 | 0.12 | 0.63 | 0.45 | 92 | 1011.3 |
| 20260506112904 | 51 | 36 | 5.0 | 9.0 | 0.12 | 0.63 | 0.45 | 92 | 1011.3 |
| 20260506112404 | 51 | 27 | 2.0 | 5.0 | 0.12 | 0.63 | 0.45 | 92 | 1011.9 |
| 20260506111904 | 51 | 28 | 3.0 | 3.0 | 0.13 | 0.63 | 0.45 | 92 | 1011.7 |
| 20260506111404 | 51 | 34 | 4.0 | 10.0 | 0.12 | 0.62 | 0.44 | 92 | 1011.5 |
| 20260506110904 | 51 | 44 | 3.0 | 9.0 | 0.12 | 0.62 | 0.44 | 91 | 1011.9 |
| 20260506105904 | 51 | 0 | 5.0 | 9.0 | 0.08 | 0.58 | 0.40 | 91 | 1012.2 |
| 20260506104904 | 51 | 12 | 4.0 | 9.0 | 0.04 | 0.54 | 0.36 | 91 | 1011.6 |
| 20260506104404 | 51 | 34 | 5.0 | 9.0 | 0.02 | 0.52 | 0.34 | 91 | 1011.3 |
| 20260506102904 | 51 | 358 | 3.0 | 9.0 | 0.01 | 0.51 | 0.33 | 91 | 1011.3 |
| 20260506101904 | 51 | 34 | 5.0 | 8.0 | 0.00 | 0.50 | 0.32 | 91 | 1011.0 |
| 20260506101404 | 51 | 12 | 2.0 | 8.0 | 0.00 | 0.50 | 0.32 | 91 | 1011.2 |
| 20260506100904 | 51 | 16 | 2.0 | 7.0 | 0.00 | 0.50 | 0.32 | 91 | 1011.3 |
| 20260506100404 | 51 | 31 | 3.0 | 8.0 | 0.01 | 0.50 | 0.32 | 91 | 1011.2 |
| 20260506095404 | 51 | 16 | 2.0 | 10.0 | 0.03 | 0.50 | 0.32 | 91 | 1011.1 |
| 20260506094404 | 51 | 60 | 4.0 | 8.0 | 0.06 | 0.50 | 0.32 | 91 | 1010.7 |
| 20260506093904 | 51 | 88 | 2.0 | 8.0 | 0.07 | 0.50 | 0.32 | 91 | 1010.6 |
| 20260506093404 | 51 | 15 | 5.0 | 12.0 | 0.08 | 0.50 | 0.32 | 91 | 1010.0 |
| 20260506092904 | 51 | 35 | 5.0 | 13.0 | 0.09 | 0.50 | 0.32 | 91 | 1009.4 |
| 20260506092404 | 51 | 46 | 3.0 | 6.0 | 0.09 | 0.50 | 0.32 | 91 | 1009.6 |
| 20260506091904 | 51 | 52 | 3.0 | 9.0 | 0.09 | 0.50 | 0.32 | 91 | 1009.6 |
| 20260506091404 | 51 | 348 | 2.0 | 8.0 | 0.09 | 0.50 | 0.32 | 91 | 1010.1 |
| 20260506090904 | 51 | 14 | 4.0 | 8.0 | 0.09 | 0.50 | 0.32 | 91 | 1010.1 |
| 20260506090404 | 51 | 8 | 4.0 | 8.0 | 0.08 | 0.49 | 0.31 | 91 | 1009.4 |
| 20260506085904 | 51 | 21 | 5.0 | 10.0 | 0.08 | 0.49 | 0.31 | 91 | 1009.4 |
| 20260506085403 | 51 | 91 | 5.0 | 8.0 | 0.06 | 0.47 | 0.29 | 91 | 1009.9 |
| 20260506084904 | 51 | 21 | 2.0 | 8.0 | 0.05 | 0.46 | 0.28 | 91 | 1010.3 |
| 20260506084404 | 51 | 49 | 4.0 | 13.0 | 0.03 | 0.44 | 0.26 | 91 | 1009.7 |
| 20260506083904 | 52 | 348 | 8.0 | 14.0 | 0.02 | 0.43 | 0.25 | 91 | 1010.1 |
| 20260506083404 | 52 | 65 | 5.0 | 12.0 | 0.01 | 0.42 | 0.24 | 91 | 1009.4 |
| 20260506082904 | 52 | 25 | 3.0 | 5.0 | 0.00 | 0.41 | 0.23 | 91 | 1009.9 |
| 20260506081904 | 52 | 8 | 5.0 | 8.0 | 0.01 | 0.41 | 0.23 | 91 | 1009.8 |
| 20260506081404 | 52 | 25 | 3.0 | 10.0 | 0.01 | 0.41 | 0.23 | 91 | 1009.7 |
| 20260506080904 | 52 | 356 | 7.0 | 20.0 | 0.01 | 0.41 | 0.23 | 90 | 1009.7 |
| 20260506080404 | 52 | 351 | 5.0 | 12.0 | 0.02 | 0.41 | 0.23 | 91 | 1009.9 |
| 20260506073404 | 53 | 346 | 6.0 | 15.0 | 0.19 | 0.41 | 0.23 | 90 | 1008.7 |
| 20260506072904 | 54 | 342 | 6.0 | 15.0 | 0.21 | 0.41 | 0.23 | 90 | 1008.8 |
| 20260506071904 | 55 | 337 | 9.0 | 15.0 | 0.22 | 0.40 | 0.22 | 89 | 1009.2 |
| 20260506071404 | 56 | 331 | 7.0 | 15.0 | 0.22 | 0.40 | 0.22 | 89 | 1009.0 |
| 20260506070904 | 57 | 349 | 8.0 | 15.0 | 0.22 | 0.40 | 0.22 | 89 | 1008.5 |
| 20260506070404 | 58 | 334 | 9.0 | 15.0 | 0.21 | 0.39 | 0.21 | 89 | 1008.8 |
| 20260506061903 | 68 | 348 | 7.0 | 12.0 | 0.00 | 0.18 | 0.00 | 83 | 1007.5 |
| 20260506060904 | 69 | 298 | 2.0 | 7.0 | 0.00 | 0.18 | 0.00 | 82 | 1006.7 |
| 20260506060404 | 69 | 209 | 3.0 | 12.0 | 0.00 | 0.18 | 0.00 | 82 | 1006.6 |
| 20260506051404 | 69 | 221 | 6.0 | 14.0 | 0.00 | 0.18 | 0.00 | 82 | 1007.1 |
| 20260506050904 | 69 | 222 | 6.0 | 10.0 | 0.00 | 0.18 | 0.00 | 82 | 1007.0 |
| 20260506050403 | 69 | 207 | 6.0 | 13.0 | 0.00 | 0.18 | 0.00 | 82 | 1007.0 |
| 20260506044904 | 69 | 217 | 5.0 | 12.0 | 0.00 | 0.18 | 0.18 | 82 | 1007.1 |
| 20260506044403 | 69 | 194 | 6.0 | 12.0 | 0.00 | 0.18 | 0.18 | 82 | 1007.0 |
| 20260506043904 | 69 | 194 | 6.0 | 13.0 | 0.00 | 0.18 | 0.18 | 82 | 1007.1 |
| 20260506043404 | 69 | 198 | 5.0 | 12.0 | 0.00 | 0.18 | 0.18 | 82 | 1007.4 |